Location: Unspecified
(41.5000°N, 0.0000°E)
Time: 02:36:09
(UTC+00:00)

Vanguard 2 - Pass Details

Date: 27 June 2019
Orbit: 553 x 2938 km, 32.9° (Epoch: 16 July)

Event Time Altitude Azimuth Distance (km) Brightness Sun altitude
Rises 11:27:33 0° 265° (W) 3,647 10.9 70.4°
Reaches altitude 10° 11:30:11 10° 252° (WSW) 2,967 10.7 70.6°
Maximum altitude 11:36:19 28° 197° (SSW) 2,504 10.9 71.0°
Drops below altitude 10° 11:45:20 10° 146° (SE) 4,472 11.8 71.4°
Sets 11:50:26 0° 136° (SE) 5,889 12.2 71.6°
